Accueil
METAR-TAF:

METAR-TAF

Aéroports :

Farmville Regional Airport

Farmville, Virginie, États-Unis

latitude: 37-21N, longitude: 078-26W, altitude: 125 m

Observation

Le bulletin a été fait il y a 21 minutes, à 16:35 UTC
Vent 7 kt de nord
Température 10°C
Humidité 43%
Pression 1028 hPa
Visibilité: 16.1 km
Ciel clair

METAR: KFVX 191635Z AUTO 01007KT 10SM CLR 10/M02 A3035 RMK AO2 T01001021

Heure: 11:56 (16:56 UTC)


TAF: absent

Observations et prévisions météorologiques de plus de 4000 aéroports (messages METAR et TAF).

Les stations disponibles sont représentées par des disques jaunes et rouges sur la carte.

Passer la souris dessus pour voir le nom de la station.

Cliquer dessus pour voir les observations et prévisions météorologiques.

Pour changer de carte: cliquez sur les boutons verts avec une croix noire pour zoomer, sur le bouton vert avec un tiret pour effectuer un zoom arrière, ou sur les flèches vertes pour les cartes adjacentes.


METAR-TAF: